Tracking 20036 objects as of 22-Nov-2019
Live streaming from Space Station
objects crossing your sky now

ANIK A2 (TELESAT 2)

Track ANIK A2 (TELESAT 2) now!
ANIK A2 (TELESAT 2) is classified as:


NORAD ID: 6437
Int'l Code: 1973-023A
Perigee: 35,865.9 km
Apogee: 35,983.9 km
Inclination: 12.2 °
Period: 1,442.8 minutes
Semi major axis: 42295 km
RCS: 3.1458 m2 (large)
Launch date: April 20, 1973
Source: Canada (CA)
Launch site: AIR FORCE EASTERN TEST RANGE (AFETR)
aabbcc
Your satellite tracking list
Your tracking list is empty




NASA's NSSDC Master Catalog

Two Line Element Set (TLE):
1  6437U 73023A   19325.83547758 -.00000305 +00000-0 +00000-0 0  9991
2  6437 012.1874 319.8384 0013948 003.0461 186.1850 00.99805829023206
Source of the keplerian elements: AFSPC